Location: Township of South Roscoe
(37.9570°N, 100.1180°W)
Time: 14:45:24
(UTC+00:00)

USA 229 - Pass Details

Date: 17 October 2021
Orbit: 946 x 1266 km, 63.4° (Epoch: 25 November)

Event Time Altitude Azimuth Distance (km) Brightness Sun altitude
Rises 12:13:07 0° 323° (NW) 4,025 6.3 -8.3°
Reaches altitude 10° 12:15:49 10° 319° (NW) 3,102 5.7 -7.7°
Maximum altitude 12:23:06 57° 244° (WSW) 1,426 4.1 -6.3°
Drops below altitude 10° 12:30:45 10° 168° (SSE) 3,234 6.5 -4.8°
Sets 12:33:37 0° 164° (SSE) 4,207 7.2 -4.3°
